Regional Weather Roundup
Issued by NWS

Home | Current Version | Previous Version | Text Only | Print | Product List | Glossary On
Versions: 1 2 3 4 5 6 7 8 9 10 11 12 13 14 15 16 17 18 19 20 21 22 23 24 25 26 27 28 29 30 31 32 33 34 35 36 37 38 39 40 41 42 43 44 45 46 47 48 49 50
000
ASUS43 KDMX 261907
RWRIA

WEATHER ROUNDUP FOR IOWA
NATIONAL WEATHER SERVICE DES MOINES IA
100 PM CST MON JAN 26 2015

NOTE: "FAIR" INDICATES FEW OR NO CLOUDS BELOW 12,000 FEET WITH NO
SIGNIFICANT WEATHER AND/OR OBSTRUCTIONS TO VISIBILITY.

* - THESE STATIONS ARE NOT NWS STATIONS...THUS NOT UNDER NWS
QUALITY CONTROL.  THEY ALSO DO NOT REPORT WEATHER SUCH
AS PRECIPITATION OR FOG.

IAZ001>003-012>014-020>022-031>034-043>046-262000-
   NORTHWEST IOWA

CITY           SKY/WX    TMP DP  RH WIND       PRES   REMARKS
CARROLL *      SUNNY     48  39  71 NW22G29   29.85R
CHEROKEE *     SUNNY     46  39  76 NW14      29.87S
DENISON *      SUNNY     50  39  66 NW16G23   29.87S
LE MARS *      SUNNY     48  41  76 NW17      29.91F
ORANGE CITY *  SUNNY     46  37  71 NW18      29.88F
SHELDON *      SUNNY     45  39  81 NW16G25   29.86S
SIOUX CITY     SUNNY     50  39  66 NW18      29.92S
SPENCER        SUNNY     47  38  71 W22       29.83S
STORM LAKE *   SUNNY     45  39  81 NW20G26   29.85F
$$

IAZ055>058-069>071-079>083-090>094-262000-
   SOUTHWEST IOWA

CITY           SKY/WX    TMP DP  RH WIND       PRES   REMARKS
ATLANTIC *     SUNNY     52  39  62 NW14G25   29.88S
AUDUBON *      SUNNY     48  39  71 NW10G17   29.88R
CLARINDA *     SUNNY     55  36  47 NW16G24   29.91S
COUNCIL BLFS * SUNNY     52  37  58 NW18G26   29.91R
CRESTON *      SUNNY     50  37  62 NW21G28   29.85S
HARLAN  *      SUNNY     50  41  71 NW22      29.93R
LAMONI         SUNNY     50  36  58 NW20      29.84F
RED OAK *      SUNNY     55  36  47 NW18G28   29.90R
SHENANDOAH *   SUNNY     55  36  47 NW14G21   29.92R
$$

IAZ047>049-059>061-072>074-084-262000-
   CENTRAL IOWA

CITY           SKY/WX    TMP DP  RH WIND       PRES   REMARKS
AMES           SUNNY     48  36  63 NW20G25   29.80S
ANKENY *       SUNNY     48  36  61 NW15G23   29.81S
CHARITON *     SUNNY     48  36  61 NW20      29.81F
DES MOINES     MOSUNNY   50  36  58 NW21      29.82F
GRINNELL*      MOSUNNY   43  36  75 NW15      29.79S
KNOXVILLE *    SUNNY     46  36  66 NW17      29.79F
MARSHALLTOWN   SUNNY     44  37  76 NW15      29.76F
PELLA *        MOSUNNY   46  36  66 NW16      29.81F
PERRY *          N/A     50  37  62 NW16G22   29.84R
$$

IAZ004>006-015-016-023>025-035-036-262000-
   NORTH CENTRAL IOWA

CITY           SKY/WX    TMP DP  RH WIND       PRES   REMARKS
ALGONA *       SUNNY     45  37  76 NW16G22   29.80S
CLARION *      SUNNY     43  41  93 NW21      29.78S
ESTHERVILLE    SUNNY     45  38  76 NW18G25   29.80S
FORT DODGE *   SUNNY     46  37  71 NW9       29.82R
MASON CITY     SUNNY     43  36  76 NW16      29.76F
FOREST CITY *  SUNNY     43  34  70 NW16G24   29.76S
IOWA FALLS *     N/A     43  37  81 NW17      29.77F
$$

IAZ007>011-017>019-026>030-037>042-050>054-066-262000-
   NORTHEAST IOWA

CITY           SKY/WX    TMP DP  RH WIND       PRES   REMARKS
CEDAR RAPIDS   CLOUDY    32  30  92 S7        29.77F WCI  26
CHARLES CITY * CLOUDY    41  37  87 NW15G22   29.74S
CLINTON *      CLOUDY    25  19  80 S10       29.83F WCI  15
DECORAH *      CLOUDY    30  28  93 S8        29.72F WCI  23
DUBUQUE        CLOUDY    23  21  92 S13       29.78F FOG     WCI  11
MONTICELLO *   CLOUDY    28  28 100 S9        29.78F WCI  20
OELWEIN *      CLOUDY    30  30 100 S6G15     29.76S WCI  24
WATERLOO       CLOUDY    40  34  79 W6        29.75F
$$

IAZ064-065-067-068-078-262000-
   EAST CENTRAL IOWA

CITY           SKY/WX    TMP DP  RH WIND       PRES   REMARKS
DAVENPORT      CLOUDY    27  23  85 S13       29.81F WCI  16
IOWA CITY      CLOUDY    32  29  88 S8        29.81F WCI  25
MT. PLEASANT * CLOUDY    34  30  86 S7        29.83F WCI  28
MUSCATINE *    CLOUDY    32  28  86 S9        29.83F WCI  24
QUAD CITIES    CLOUDY    28  24  85 S8        29.81F WCI  20
$$

IAZ062-063-075>077-085>089-095>099-262000-
   SOUTHEAST IOWA

CITY           SKY/WX    TMP DP  RH WIND       PRES   REMARKS
BURLINGTON     CLOUDY    33  30  88 S8        29.84F WCI  26
FAIRFIELD *    CLOUDY    39  34  81 W7        29.81F WCI  34
FORT MADISON * CLOUDY    36  32  87 S8        29.84R WCI  29
KEOKUK *       CLOUDY    36  32  87 SW7       29.84R WCI  30
OSKALOOSA *      N/A     43  36  75 W17       29.80F
CENTERVILLE *  SUNNY     46  37  71 W18       29.83R
OTTUMWA        PTSUNNY   43  34  70 W15G21    29.79F
WASHINGTON *   CLOUDY    36  36 100 SW7       29.80F WCI  30
$$

ABBREVIATIONS USED IN REMARKS
   TC - TEMPERATURES IN CELSIUS
  WCI - WIND CHILL INDEX
   HX - HEAT INDEX
  VSB - VISIBILITY
$$




USA.gov is the U.S. government's official web portal to all federal, state and local government web resources and services.